Date,TemperatureHighF,TemperatureAvgF,TemperatureLowF,DewpointHighF,DewpointAvgF,DewpointLowF,HumidityHigh,HumidityAvg,HumidityLow,PressureMaxIn,PressureMinIn,WindSpeedMaxMPH,WindSpeedAvgMPH,GustSpeedMaxMPH,PrecipitationSumIn
2013-1-1,31,16,6,15,10,1,84,75,49,30.76,30.57,10,3,10,0.03
2013-1-2,16,10,2,12,5,-4,83,80,75,30.75,30.62,8,2,8,0.00
2013-1-3,30,16,0,14,6,-6,82,65,41,30.62,30.40,12,3,12,0.01
2013-1-4,39,25,14,20,13,7,74,61,43,30.56,30.36,12,4,12,0.01
2013-1-5,30,25,20,22,16,10,79,69,53,30.40,30.28,9,3,9,0.00
2013-1-6,42,30,21,26,21,16,83,70,52,30.32,30.15,8,3,8,0.00
2013-1-7,47,42,30,34,30,22,72,63,53,30.16,30.04,30,15,30,0.01
2013-1-8,49,44,40,36,32,28,71,63,54,30.16,29.98,32,16,32,0.00
2013-1-9,48,38,26,33,26,18,76,62,47,29.98,29.72,36,12,36,0.02
2013-1-10,32,26,22,22,17,14,83,68,51,30.10,29.93,21,6,21,0.04
2013-1-11,28,21,12,15,11,6,75,64,47,30.40,30.08,17,6,17,0.00
2013-1-12,27,14,3,8,4,-3,79,64,36,30.53,30.36,7,2,7,0.00
2013-1-13,29,16,4,7,2,-2,77,57,28,30.62,30.47,6,2,6,0.00
2013-1-14,39,23,7,21,8,-2,74,55,29,30.65,30.47,8,2,8,0.00
2013-1-15,48,29,14,22,16,9,83,62,34,30.75,30.52,7,2,7,0.00
2013-1-16,53,33,17,20,15,9,72,52,24,30.75,30.53,7,2,7,0.00
2013-1-17,49,34,24,20,16,11,64,49,28,30.62,30.39,12,4,12,0.00
2013-1-18,50,32,21,20,15,10,62,50,30,30.51,30.34,10,4,10,0.00
2013-1-19,54,34,19,21,16,10,69,50,26,30.54,30.35,9,2,9,0.00
2013-1-20,50,33,23,17,13,10,69,47,24,30.54,30.36,12,3,12,0.00
2013-1-21,50,33,20,18,12,7,62,45,23,30.44,30.19,10,4,10,0.00
2013-1-22,49,32,22,22,15,10,70,52,26,30.30,30.06,10,3,10,0.00
2013-1-23,55,40,31,33,24,16,81,53,27,30.09,29.85,21,5,21,0.00
2013-1-24,52,43,33,36,32,30,89,67,45,30.20,30.06,24,6,24,0.00
2013-1-25,47,42,38,38,35,33,87,76,61,30.09,29.90,26,5,26,0.04
2013-1-26,42,35,29,34,23,19,87,63,41,30.05,29.90,20,5,20,0.01
2013-1-27,38,32,25,23,20,14,78,63,39,30.15,30.03,18,6,18,0.00
2013-1-28,38,35,31,25,23,20,70,62,53,30.16,30.03,25,7,25,0.00
2013-1-29,46,40,37,30,27,24,67,60,53,30.39,30.11,26,8,26,0.00
2013-1-30,48,40,34,32,29,23,80,63,53,30.44,30.36,16,5,16,0.00
2013-1-31,50,38,29,31,28,25,86,68,44,30.42,30.26,12,3,12,0.00
2013-2-1,51,36,26,31,26,22,86,69,38,30.45,30.29,8,2,8,0.00
2013-2-2,50,35,24,31,26,19,86,71,45,30.51,30.28,7,2,7,0.00
2013-2-3,55,41,24,29,23,19,85,54,26,30.35,30.10,16,3,16,0.01
2013-2-4,52,42,32,27,24,19,72,50,27,30.17,29.92,12,2,12,0.00
2013-2-5,46,41,33,29,21,13,73,47,30,30.06,29.87,36,6,36,0.00
2013-2-6,48,39,33,25,22,18,70,51,32,30.14,29.88,13,0,13,0.00
2013-2-7,40,34,27,27,22,17,78,61,41,30.11,29.86,0,0,0,0.00
2013-2-8,38,30,23,22,19,14,85,64,37,30.23,30.10,16,2,16,0.00
2013-2-9,42,30,20,26,20,13,82,67,51,30.27,30.17,7,0,2,0.00
2013-2-10,44,33,24,26,20,16,86,62,34,30.36,30.22,10,0,10,0.00
2013-2-11,48,35,23,29,22,15,78,60,28,30.34,30.21,13,1,13,0.00
2013-2-12,48,37,28,29,25,22,83,64,38,30.47,30.33,13,1,13,0.00
2013-2-13,47,37,29,31,27,24,83,68,50,30.47,30.36,2,0,2,0.00
2013-2-14,52,39,26,33,29,22,86,69,45,30.57,30.44,0,0,0,0.00
2013-2-15,59,40,26,33,29,22,88,68,34,30.53,30.23,0,0,0,0.01
2013-2-16,54,41,28,31,24,18,78,52,28,30.23,30.08,16,2,16,0.00
2013-2-17,44,32,20,21,17,11,80,58,26,30.29,30.08,2,0,0,0.00
2013-2-18,42,31,22,22,18,12,77,60,30,30.09,29.75,1,0,1,0.00
2013-2-19,40,30,20,28,19,14,83,65,40,29.98,29.73,13,1,13,0.00
2013-2-20,41,31,23,23,19,15,81,62,35,30.11,29.97,12,0,12,0.01
2013-2-21,39,33,25,23,21,17,80,62,40,30.19,30.06,12,1,12,0.00
2013-2-22,45,36,28,32,26,21,86,65,47,30.16,29.86,26,5,26,0.01
2013-2-23,37,29,22,22,18,15,80,64,42,30.43,30.01,28,2,28,0.02
2013-2-24,46,33,18,28,20,12,78,58,35,30.49,30.08,2,0,2,0.00
2013-2-25,41,35,25,30,20,8,79,54,27,30.36,29.99,21,4,21,0.00
2013-2-26,49,35,21,19,14,1,74,45,16,30.45,30.22,1,0,1,0.00
2013-2-27,48,40,29,29,21,13,56,46,36,30.34,30.23,12,0,12,0.00
2013-2-28,55,46,39,37,34,26,73,63,51,30.43,30.22,12,2,12,0.00
2013-3-1,62,50,42,34,30,23,72,49,23,30.45,30.23,5,0,5,0.00
2013-3-2,56,46,39,32,29,23,67,52,30,30.24,30.04,10,0,10,0.00
2013-3-3,42,35,24,30,15,-6,74,49,13,30.27,30.03,13,1,13,0.00
2013-3-4,46,26,15,16,12,9,81,61,24,30.31,30.14,12,0,12,0.00
2013-3-22,38,30,23,17,15,8,73,53,31,30.39,30.25,22,5,22,0.00
2013-3-23,44,32,22,17,15,10,73,52,25,30.41,30.22,2,0,2,0.00
2013-3-24,47,35,22,24,19,14,72,53,33,30.31,30.11,4,0,4,0.00
2013-3-25,50,40,29,28,24,22,74,54,36,30.11,29.91,12,0,12,0.00
2013-3-26,49,42,36,37,32,26,81,68,53,29.99,29.89,1,0,1,0.00
2013-3-27,56,43,31,41,35,28,89,75,42,29.96,29.84,4,0,4,0.17
2013-3-28,56,45,38,42,39,36,91,80,49,30.08,29.94,4,0,4,0.23
2013-3-29,62,49,37,41,38,34,89,70,38,30.20,30.06,6,0,0,0.00
2013-3-30,69,52,34,41,37,31,89,61,28,30.21,29.95,13,1,13,0.00
2013-3-31,64,52,37,42,36,32,83,58,34,29.99,29.83,12,1,12,0.00
2013-4-1,61,50,40,41,38,35,87,66,43,30.08,29.85,14,2,14,0.00
2013-4-2,63,48,36,38,35,32,88,63,33,30.17,30.01,12,1,12,0.00
2013-4-3,66,51,34,37,31,23,86,52,20,30.15,29.85,2,0,2,0.00
2013-4-4,63,52,45,42,36,32,71,54,34,29.84,29.63,21,2,21,0.00
2013-4-5,55,46,41,38,34,30,77,63,38,29.93,29.82,21,1,21,0.01
2013-4-6,52,45,40,36,33,26,78,63,38,29.94,29.75,25,3,25,0.01
2013-4-7,46,41,33,34,27,20,73,58,37,29.85,29.58,29,7,29,0.03
2013-4-8,45,37,28,25,23,20,74,58,43,30.25,29.85,21,3,21,0.00
2013-4-9,57,42,26,33,24,10,80,54,16,30.36,30.20,12,0,12,0.00
2013-4-10,59,48,35,41,34,27,77,59,35,30.20,30.02,34,6,34,0.00
2013-4-11,53,40,26,28,24,18,85,57,28,30.27,30.09,12,1,12,0.00
2013-4-12,62,38,26,26,21,10,77,58,14,30.13,29.81,12,0,12,0.00
2013-4-13,46,39,31,32,21,10,64,48,24,30.05,29.65,18,3,29,0.00
2013-4-14,41,33,25,26,19,15,85,57,38,30.07,29.86,14,0,14,0.00
2013-4-15,40,32,28,29,27,21,88,82,50,30.15,29.88,21,2,21,0.02
2013-4-16,39,32,28,28,26,22,87,79,53,30.28,30.13,16,2,17,0.09
2013-8-7,77,70,66,41,38,35,40,31,25,29.84,29.79,14,2,14,0.00
2013-8-8,82,70,56,46,40,33,60,36,17,29.87,29.70,4,0,4,0.00
2013-8-9,82,67,56,53,45,38,74,47,22,29.84,29.63,10,0,10,0.07
2013-8-10,75,61,48,50,46,42,81,60,31,29.96,29.79,16,0,16,0.00
2013-8-11,75,64,50,49,43,37,74,51,26,29.98,29.81,12,1,12,0.00
2013-8-12,81,65,51,59,47,38,80,55,22,29.93,29.78,12,0,12,0.13
2013-8-13,86,69,52,49,44,34,73,45,16,29.96,29.74,16,0,16,0.00
2013-8-14,87,71,56,49,44,35,61,40,17,29.83,29.67,16,1,16,0.00
2013-8-15,87,70,52,51,45,35,73,45,16,29.86,29.67,20,1,20,0.00
2013-8-16,83,69,55,60,51,44,75,54,27,29.88,29.77,17,0,17,0.01
2013-8-17,82,69,55,53,49,44,80,53,28,29.94,29.78,17,2,17,0.00
2013-8-18,85,69,52,51,45,33,82,48,18,30.00,29.82,14,0,14,0.00
2013-8-19,86,70,53,51,44,35,74,44,18,29.95,29.77,20,1,20,0.00
2013-8-20,82,67,49,46,33,11,77,37,7,29.98,29.79,14,0,14,0.00
2013-8-21,82,69,54,43,32,27,44,28,15,29.90,29.75,5,0,4,0.00
2013-8-22,82,65,58,54,44,32,72,48,26,29.84,29.72,16,0,16,0.02
2013-8-23,80,65,51,55,46,39,84,54,26,29.85,29.64,16,1,16,0.18
2013-8-24,76,61,48,54,48,39,89,67,27,29.79,29.62,12,0,12,0.11
2013-8-25,71,58,52,55,50,48,88,77,45,29.83,29.69,14,0,14,0.08
2013-8-31,89,77,67,48,46,41,47,34,19,29.72,29.67,1,0,14,0.10
2013-9-1,84,64,54,48,44,35,66,52,18,29.75,29.64,0,0,0,0.00
2013-9-2,84,72,58,51,45,31,73,43,16,29.76,29.60,17,2,17,0.00
2013-9-3,82,64,50,50,45,27,84,56,14,29.87,29.71,17,1,17,0.00
2013-9-4,82,64,50,49,44,31,82,54,16,29.93,29.74,6,0,6,0.00
2013-9-5,72,58,48,50,44,34,84,62,29,29.95,29.75,29,1,29,0.00
2013-9-6,69,59,51,46,44,40,78,58,38,30.07,29.92,16,1,16,0.00
2013-9-7,78,61,42,47,43,38,88,57,26,30.07,29.83,16,1,16,0.00
2013-9-8,74,62,49,50,44,38,80,55,29,29.98,29.88,16,1,16,0.00
2013-9-9,81,66,49,44,39,28,70,42,15,29.97,29.77,12,0,12,0.00
2013-9-10,83,69,51,46,41,36,66,39,19,29.89,29.72,14,0,14,0.00
2013-9-11,86,70,53,49,42,36,66,39,17,29.93,29.77,5,0,5,0.00
2013-9-12,88,73,58,48,41,33,55,34,15,29.88,29.70,5,0,5,0.00
2013-9-13,80,70,58,47,40,36,63,35,22,29.79,29.64,2,0,2,0.00
2013-9-14,87,71,55,50,44,37,70,43,18,29.74,29.54,4,0,3,0.00
2013-9-15,88,70,55,48,41,18,66,41,8,29.68,29.41,10,0,10,0.00
2013-9-16,69,58,49,46,42,40,74,56,38,29.83,29.67,16,0,16,0.00
2013-9-17,57,51,46,48,41,37,81,71,55,29.92,29.72,20,1,20,0.07
2013-9-18,65,52,43,40,34,25,78,54,23,30.06,29.92,0,0,0,0.00
2013-9-19,79,58,36,36,30,20,78,43,12,30.05,29.69,1,0,1,0.00
2013-9-20,77,57,40,44,34,20,69,46,13,29.71,29.45,17,1,20,0.00
2013-9-21,63,52,44,46,38,32,87,61,34,29.70,29.50,12,0,12,0.12
2013-9-22,60,52,43,46,39,35,82,63,47,29.79,29.65,16,1,16,0.01
2013-9-23,62,55,48,41,39,34,72,55,38,29.90,29.76,16,1,16,0.00
2013-9-24,52,47,40,43,38,34,84,72,54,29.86,29.77,10,0,10,0.11
2013-9-25,50,43,38,37,33,30,84,70,49,29.96,29.77,20,1,20,0.02
2013-9-26,53,42,32,35,32,27,84,67,39,30.14,29.95,10,0,16,0.00
2013-9-27,62,47,30,42,33,23,86,61,25,30.18,29.90,12,0,13,0.00
2013-9-28,64,57,47,47,42,38,84,59,40,29.90,29.51,24,2,24,0.29
2013-9-29,52,47,43,46,40,35,86,75,61,29.71,29.45,18,1,18,0.63
2013-9-30,53,46,39,46,33,27,86,62,45,29.96,29.50,31,2,31,0.11
2013-10-1,52,43,31,36,31,22,80,62,34,30.17,29.93,18,1,18,0.00
2013-10-2,49,38,27,34,28,22,84,67,40,30.20,30.01,16,1,16,0.02
2013-10-3,50,39,31,33,30,27,87,70,44,30.42,30.10,4,0,4,0.01
2013-10-4,59,43,29,33,28,23,83,58,25,30.55,30.36,0,0,0,0.00
2013-10-5,75,50,30,34,26,16,82,47,11,30.41,30.12,0,0,0,0.00
2013-10-6,75,56,38,35,26,19,61,35,13,30.19,29.87,7,0,7,0.00
2013-10-7,55,49,38,38,29,18,73,47,27,30.06,29.84,17,1,17,0.00
2013-10-8,50,41,34,38,32,28,86,71,46,30.09,29.89,5,0,5,0.07
2013-10-9,44,39,34,34,32,30,87,77,64,30.06,29.93,16,1,16,0.04
2013-10-10,56,43,33,33,30,26,81,63,36,30.05,29.88,17,1,17,0.00
2013-10-11,53,42,28,35,31,25,87,67,42,30.15,30.02,5,0,5,0.00
2013-10-12,47,40,34,35,32,29,83,72,54,30.14,30.00,5,0,5,0.00
2013-10-13,49,43,36,36,34,31,86,73,50,30.33,30.12,1,0,0,0.00
2013-10-14,54,41,30,33,29,26,86,64,38,30.41,30.31,5,0,5,0.00
2013-10-15,62,43,25,30,26,20,81,54,22,30.45,30.17,0,0,0,0.00
2013-10-16,63,46,31,28,24,20,69,46,22,30.19,30.03,4,0,4,0.00
2013-10-17,60,45,32,35,29,26,80,57,29,30.27,30.13,4,0,1,0.00
2013-10-18,64,46,30,35,30,25,83,59,27,30.30,30.11,0,0,0,0.00
2013-10-19,74,51,29,32,26,21,81,46,14,30.20,30.00,0,0,0,0.00
2013-10-20,69,52,37,33,29,26,69,45,20,30.17,30.03,0,0,0,0.00
2013-10-21,70,52,37,36,32,28,73,49,22,30.19,30.01,1,0,0,0.00
2013-10-22,70,51,36,37,33,29,78,54,22,30.18,29.96,4,0,1,0.00
2013-10-23,68,50,35,37,33,30,83,57,27,30.11,29.95,6,0,4,0.00
2013-10-24,69,49,35,40,35,31,87,62,27,30.14,29.94,1,0,0,0.00
2013-10-25,71,51,32,36,32,24,84,53,17,30.22,30.06,4,0,4,0.00
2013-10-26,71,49,36,36,31,26,74,54,19,30.29,30.04,4,0,4,0.00
2013-10-27,52,40,36,39,34,28,90,78,41,30.06,29.72,26,2,26,0.14
2013-10-28,40,34,31,37,26,19,90,72,56,29.99,29.72,22,7,22,0.02
2013-10-29,46,34,25,22,19,16,70,54,35,30.10,29.97,0,0,0,0.00
2013-10-30,56,39,22,31,24,18,86,59,28,30.21,30.06,0,0,0,0.00
2013-10-31,62,48,36,43,37,28,80,67,48,30.21,30.07,10,0,10,0.00
2013-11-1,60,46,35,41,37,32,89,73,46,30.27,29.91,1,0,0,0.00
2013-11-2,51,43,32,40,30,22,80,62,37,30.06,29.68,28,4,28,0.00
2013-11-3,42,36,30,27,24,20,77,62,41,30.13,30.01,17,0,17,0.00
2013-11-4,46,40,35,29,27,24,70,61,41,30.17,30.07,17,0,17,0.00
2013-11-5,51,45,37,39,36,28,81,69,60,30.20,30.07,14,1,14,0.02
2013-11-6,57,47,36,43,40,33,89,75,55,30.29,30.05,7,0,7,0.00
2013-11-7,56,45,35,42,35,24,85,67,47,30.09,29.83,26,2,26,0.06
2013-11-8,45,39,31,29,27,26,80,63,47,30.19,30.09,5,0,2,0.00
2013-11-9,53,38,26,34,29,22,84,69,41,30.16,30.05,0,0,0,0.00
2013-11-10,65,46,35,38,33,25,86,65,22,30.14,29.98,2,0,2,0.00
2013-11-11,41,37,31,36,33,28,91,86,78,30.34,30.11,0,0,0,0.01
2013-11-12,59,46,36,44,37,32,88,71,41,30.35,30.23,10,0,10,0.00
2013-11-13,57,42,30,40,30,20,90,67,26,30.47,30.25,0,0,0,0.01
2013-11-14,47,35,27,28,23,18,79,63,40,30.25,30.07,13,0,13,0.00
2013-11-15,43,34,25,26,23,19,82,64,44,30.08,29.52,16,1,16,0.00
2013-11-16,44,40,36,28,26,20,67,57,41,29.82,29.46,32,3,32,0.00
2013-11-17,47,41,36,29,27,25,66,57,46,30.00,29.82,14,1,14,0.00
2013-11-18,51,44,35,34,29,23,71,56,42,30.00,29.74,28,1,28,0.00
2013-11-19,50,46,41,41,36,33,75,69,59,29.78,29.72,20,1,20,0.01
2013-11-20,43,30,18,36,16,-5,87,58,35,30.48,29.78,17,2,17,0.01
2013-11-21,31,20,10,1,-3,-6,60,38,23,30.81,30.48,4,0,4,0.00
2013-11-22,35,20,5,8,4,-3,72,52,28,30.88,30.69,0,0,0,0.00
2013-11-23,38,22,10,12,8,3,75,59,34,30.72,30.42,0,0,0,0.00
2013-11-24,56,32,14,17,12,6,77,49,15,30.45,30.24,0,0,0,0.00
2013-11-25,53,32,20,18,15,12,71,52,21,30.50,30.33,0,0,0,0.00
2013-11-26,51,33,21,20,16,13,73,54,25,30.42,30.17,0,0,0,0.00
2013-11-27,44,32,24,23,20,16,76,61,41,30.21,30.07,0,0,0,0.00
2013-11-28,54,33,19,24,20,14,84,62,28,30.29,30.11,0,0,0,0.00
2013-11-29,56,41,25,26,21,18,78,49,25,30.37,30.20,0,0,0,0.00
2013-11-30,56,45,37,35,32,25,78,60,41,30.35,30.19,4,0,4,0.00
2013-12-1,57,51,47,40,36,31,70,55,43,30.18,29.78,112,6,112,0.00
2013-12-2,50,36,25,35,27,16,82,68,51,30.00,29.74,0,0,0,0.08
2013-12-3,26,21,14,20,12,4,82,69,53,30.33,29.99,0,0,0,0.00
2013-12-4,19,12,3,4,0,-4,71,58,42,30.49,30.34,0,0,0,0.00
2013-12-5,23,10,-4,6,-1,-11,73,62,39,30.50,30.28,0,0,0,0.00
2013-12-6,11,9,8,4,3,2,80,77,73,30.29,30.14,0,0,0,0.00
2013-12-7,8,1,-14,2,-7,-23,77,70,62,30.68,30.18,0,0,0,0.00
2013-12-8,18,-1,-18,7,-9,-26,78,68,61,30.84,30.62,0,0,0,0.02
2013-12-9,29,12,-5,15,3,-12,77,66,54,30.82,30.59,0,0,0,0.03
2013-12-10,38,23,7,22,14,2,82,70,52,30.60,30.46,0,0,0,0.01
2013-12-11,40,25,11,22,16,6,83,68,46,30.55,30.36,0,0,0,0.01
2013-12-12,44,33,20,28,19,11,71,57,38,30.39,30.17,0,0,0,0.00
2013-12-13,47,36,25,30,26,19,83,69,49,30.52,30.19,0,0,0,0.00
2013-12-14,44,34,24,28,24,19,83,68,49,30.58,30.43,0,0,0,0.00
2013-12-15,58,42,34,33,25,14,84,56,20,30.48,30.30,0,0,0,0.00
2013-12-16,54,37,26,27,22,18,80,57,28,30.53,30.34,0,0,0,0.00
2013-12-17,56,40,32,25,22,18,68,49,29,30.34,30.08,0,0,0,0.00
2013-12-18,41,35,29,30,26,22,87,70,55,30.10,29.94,0,0,0,0.00
2013-12-19,31,24,16,25,11,3,81,59,40,30.33,30.02,0,0,0,0.00
2013-12-20,47,31,18,36,22,3,81,68,48,30.24,29.86,0,0,0,0.06
2013-12-21,50,42,36,32,29,26,78,61,41,30.19,29.83,0,0,0,0.00
2013-12-22,54,42,34,36,30,26,77,64,38,30.35,30.14,0,0,0,0.00
2013-12-23,54,44,33,38,30,22,77,60,36,30.44,30.20,0,0,0,0.00
2013-12-24,47,34,26,28,24,17,85,67,39,30.60,30.44,0,0,0,0.00
2013-12-25,48,35,24,27,22,15,71,59,32,30.58,30.40,0,0,0,0.00
2013-12-26,55,39,26,27,23,19,77,54,28,30.46,30.25,0,0,0,0.00
2013-12-27,49,37,30,25,21,18,63,53,37,30.33,30.17,0,0,0,0.00
2013-12-28,46,34,25,22,17,12,70,53,26,30.53,30.30,0,0,0,0.00
2013-12-29,46,32,21,25,16,10,69,53,27,30.52,30.32,0,0,0,0.00
2013-12-30,48,39,31,25,21,14,70,50,26,30.33,30.19,0,0,0,0.00
2013-12-31,51,40,34,26,22,16,60,48,26,30.34,30.21,0,0,0,0.00
2014-1-1,52,36,27,31,26,21,84,67,43,30.44,30.28,0,0,0,0.00
2014-1-2,56,42,27,32,26,22,84,56,31,30.37,29.98,0,0,0,0.00